GAOFEN-11 01 (43585 NORAD) Tracking and Keplerian Element Data

This shows tracking and keplerian element data for the satellite.

Feedback or suggestion? Click here.




ElementValue
Catalog43585
NameGAOFEN-11 01
Epoch Orbit36334
Epoch Day35.20425308
Epoch Year2025
RAAN102.1286
Inclination97.199
Eccentricity0.0007032
Argument of Perigee9.4962
Mean Anonmoly350.6416
Mean Motion15.39273159
Decay Rate0.00017139
L11 43585U 18063A 25035.20425308 .00017139 00000+0 44120-3 0 9996
L22 43585 97.1990 102.1286 0007032 9.4962 350.6416 15.39273159363343



Live tracking and technical data element details for GAOFEN-11 01 (NORAD 43585). GAOFEN-11 01 can be tracked NOW for your location showing map with azimuth and elevation plus other details from your city location.







IsCatalogInMostPopularTable: catalog: 43585, numindb: 424
Update: records affected: 1



GetName: 43585 GAOFEN-11 01

Hit Count: updated at: Thu, 22 May 2025 02:25:32 GMT